Flag for France Weather past 2 weeks in Montpellier, France

Now
75 °F

Clear.


Feels Like: 75 °F
Forecast: 65 / 90 °F
Wind: 5 mph from East

Location: Montpellier Airport

Current Time: Jul 7, 2015 at 1:07:06 AM

Latest Report: Jul 7, 2015 at 12:30 AM


Visibility: 10 mi

Pressure: 30.01 "Hg

Humidity: 83%

Dew point: 70 °F

Location of MontpellierLocation

Historic Weather in Montpellier — Graph

°F

Montpellier temperature yesterday

Maximum temperature yesterday: 90 °F (at 2:00 PM)
Minimum temperature yesterday: 73 °F (at 5:00 AM)
Average temperature yesterday: 80 °F

Past Weeks' High & Low Weather Summary

 TemperatureHumidityPressure
High93 °F (Jun 27, 2:00 PM)94% (Jun 23, 1:30 AM)30.21 "Hg (Jun 23, 1:30 AM)
Low61 °F (Jun 24, 5:00 AM)22% (Jun 24, 3:00 PM)29.83 "Hg (Jun 23, 3:30 PM)
Average77 °F60%30.07 "Hg
* Reported Midnight between Jun 21 and Jun 22 — Midnight between Jul 6 and Jul 7, Montpellier, Weather by CustomWeather, © 2015

Note: Actual official high and low records may vary slightly from our data, if they occured in-between our weather recording intervals... More about our weather records

Advertising

Montpellier weather history for previous 24 hours

 ConditionsComfort  
Time TempWeatherWind HumidityBarometerVisibility
12:00 AM
Tue, Jul 7
77 °FClear.5 mph79%30.01 "Hg10 mi
11:00 PM
Mon, Jul 6
77 °FClear.5 mph79%30.01 "Hg10 mi
10:30 PM77 °FClear.5 mph83%30.01 "Hg10 mi
10:00 PM79 °FSunny.3 mph79%30.01 "Hg10 mi
9:30 PM79 °FPassing clouds.5 mph79%30.01 "HgN/A
9:00 PM79 °FPassing clouds.5 mph79%30.01 "HgN/A
8:30 PM81 °FPassing clouds.6 mph74%30.01 "HgN/A
8:00 PM81 °FPassing clouds.7 mph74%30.01 "HgN/A
7:30 PM81 °FSunny.8 mph79%30.01 "Hg10 mi
7:00 PM81 °FSunny.8 mph74%30.01 "Hg10 mi
6:30 PM82 °FPassing clouds.8 mph70%30.01 "HgN/A
6:05 PM84 °FPassing clouds.9 mph58%30.01 "HgN/A
5:00 PM84 °FSunny.10 mph62%30.04 "Hg10 mi
4:30 PM86 °FSunny.10 mph59%30.04 "Hg10 mi
4:00 PM86 °FSunny.10 mph59%30.04 "Hg10 mi
3:30 PM88 °FSunny.12 mph59%30.04 "Hg10 mi
3:00 PM86 °FSunny.12 mph59%30.04 "Hg10 mi
2:30 PM88 °FSunny.9 mph59%30.04 "Hg10 mi
2:00 PM90 °FSunny.7 mph52%30.04 "Hg10 mi
1:30 PM88 °FSunny.8 mph52%30.04 "Hg10 mi
1:00 PM88 °FPassing clouds.7 mph55%30.07 "HgN/A
12:30 PM88 °FPassing clouds.6 mph55%30.07 "HgN/A
12:00 PM86 °FPassing clouds.5 mph55%30.07 "HgN/A
11:30 AM86 °FPassing clouds.5 mph59%30.07 "HgN/A
11:00 AM84 °FSunny.6 mph62%30.07 "Hg10 mi
10:30 AM84 °FPassing clouds.5 mph62%30.07 "HgN/A
10:00 AM84 °FSunny.3 mph58%30.07 "Hg10 mi
9:30 AM82 °FPassing clouds.3 mph62%30.07 "HgN/A
9:00 AM82 °FSunny.2 mph58%30.07 "Hg10 mi
8:37 AM81 °FSunny.2 mph62%30.07 "Hg10 mi
8:00 AM77 °FSunny.3 mph74%30.07 "Hg10 mi
7:30 AM75 °FSunny.2 mph78%30.07 "Hg10 mi
7:00 AM73 °FPassing clouds.3 mph83%30.09 "HgN/A
6:30 AM75 °FPassing clouds.5 mph78%30.07 "HgN/A
6:00 AM73 °FClear.5 mph83%30.07 "Hg10 mi
5:34 AM73 °FClear.3 mph83%30.07 "Hg10 mi
5:00 AM73 °FClear.2 mph83%30.07 "Hg10 mi
4:30 AM75 °FClear.2 mph78%30.07 "Hg10 mi
4:00 AM75 °FClear.2 mph78%30.07 "Hg10 mi
3:30 AM75 °FClear.3 mph78%30.07 "Hg10 mi
3:00 AM75 °FClear.2 mph78%30.07 "Hg10 mi
2:30 AM75 °FClear.3 mph78%30.07 "Hg10 mi
2:00 AM75 °FClear.3 mph83%30.07 "Hg10 mi
1:30 AM75 °FClear.3 mph83%30.07 "Hg10 mi
1:00 AM75 °FClear.3 mph83%30.07 "Hg10 mi
Weather by CustomWeather, © 2015

See weather overviewHow to use our weather pages